Location: Blackrock Ranger Station
(36.0936°N, 118.2611°W)
Time: 07:58:08
(UTC-07:00)

AO-7 - Pass Details

Date: 23 February 2026
Orbit: 1440 x 1458 km, 102.0° (Epoch: 15 March)

Event Time Altitude Azimuth Distance (km) Brightness Sun altitude
Rises 19:17:03 0° 214° (SW) 4,515 ? -19.8°
Reaches altitude 10° 19:21:32 10° 236° (WSW) 3,544 ? -20.7°
Maximum altitude 19:25:45 15° 268° (W) 3,184 ? -21.6°
Drops below altitude 10° 19:30:01 10° 300° (WNW) 3,558 ? -22.4°
Sets 19:34:35 0° 322° (NW) 4,545 ? -23.4°
